www.pogodaiklimat.ru

АРХИВ ПОГОДЫ в Оклахоме-Сити

Время (UTC), дата Ветер
(напр.,м/с)
 
Видим.   Явления Облачность Т
(С)
Тd
(С)
f
(%)
Тe
(С)
Тes
(С)
Комфортность

P
(гПа)

Po
(гПа)
Тmin
(С)
Tmax
(С)
R
(мм)
SD
(см)
13:41 24.02 СВ  800 м  слабая морось, туман  10/10 60 м  +2.8  +2.8  100  -4  -4      962.8         
13:52 24.02 С  800 м  слабая морось, туман  10/10 60 м  +2.8  +2.8  100  -3  -3    1009.6  962.8         
13:55 24.02 С  400 м  гроза со слабой моросью, туман  10/10 60 м  +2.8  +2.8  100  -3  -3               
14:13 24.02 СЗ  1 км  гроза с сильным дождем, дымка  10/10 60 м  +2.8  +2.8  100  -2  -2               
14:33 24.02 СВ  3 км  гроза с дождем, дымка  10/10 60 м  +2.8  +2.8  100  -2  -2      964.7         
14:43 24.02 С  н/о  гроза со слабым дождем, дымка  10/8 150 м
[средняя] 
+2.8  +2.2  96  -3  -3               
14:52 24.02 СЗ  н/о  гроза со слабым дождем  10/8 240 м
[средняя] 
+2.8  +2.2  96  -4  -4    1012.2  965.0      11.2   
15:08 24.02 СЗ  16 км    10/8 120 м
[средняя] 
+2.2  +2.2  100  -3  -3      965.0         
15:20 24.02 СЗ  16 км    10/10 150 м  +2.2  +2.2  100  -3  -3      965.7         
15:38 24.02 СЗ  3 км  слабый дождь, дымка  10/10 150 м  +2.2  +1.7  96  -4  -4      966.0         
15:52 24.02 СЗ  2 км  слабый дождь, дымка  10/10 150 м  +2.2  +2.2  100  -5  -5    1012.1  965.0         
16:01 24.02 СЗ  3 км  слабый дождь, дымка  10/10 150 м  +2.2  +2.2  100  -4  -4      965.0         
16:08 24.02 СЗ  5 км  дымка  10/10 150 м  +2.0  +2.0  100  -5  -5      965.0         
16:16 24.02 СЗ  16 км    10/10 150 м  +2.0  +2.0  100  -4  -4      965.0         
16:52 24.02 СЗ  16 км    10/10 150 м  +3.0  +2.0  93  -3  -3    1012.2  965.0         
17:20 24.02 штиль  16 км    8/8 150 м
[средняя] 
+3.9  +2.2  89  +3  +5      965.0         
17:52 24.02 З  16 км    8/8 180 м
[средняя] 
+5.0  +3.0  87  +3  +5    1011.8  965.0  +2.2  +5.6     
18:30 24.02 СЗ  16 км    5/5 240 м  +7.2  +5.6  90  +4  +9      964.4         
18:52 24.02 З  16 км    5/5 300 м  +8.3  +5.6  83  +5  +7    1010.8  964.0         
19:52 24.02 З  16 км    8/8 450 м
[верхняя] 
+9.4  +5.0  74  +6  +7    1009.9  963.4         
20:52 24.02 СЗ  16 км    8/8 570 м  +11.0  +5.0  66  +7  +7    1010.3  963.7         
21:13 24.02 СЗ  16 км    8/8 900 м  +10.6  +5.6  71  +7  +7      963.7         
21:52 24.02 З  16 км    5/5 900 м  +10.6  +3.9  63  +7  +7    1010.7  964.0         
22:52 24.02 СЗ  16 км    5/5 900 м  +10.0  +2.2  58  +6  +6    1012.1  965.3         
23:52 24.02 С  16 км    2/2 1020 м  +9.0  +3.0  66  +5  +6    1013.1  966.3  +5.6       
00:52 25.02 С  16 км    2/2 1500 м  +6.7  +1.7  70  +2  +2    1014.3  967.3         
01:52 25.02 С  16 км    ясно  +5.6  +0.6  70  +2  +2    1015.0  967.9         
02:52 25.02 штиль  16 км    ясно  +3.3  0.0  79  +2  +2    1016.0  968.9         
03:52 25.02 Ю  16 км    ясно  +1.7  0.0  88  -1  -1    1016.4  969.2         
04:52 25.02 Ю  16 км    ясно  +1.1  0.0  92  -2  -2    1016.8  969.5         
05:52 25.02 ЮВ  16 км    ясно  +1.1  -0.6  88  -3  -3    1016.7  969.5    +8.9     
06:52 25.02 ЮВ  16 км    ясно  +0.6  -0.6  92  -4  -4    1016.6  969.5         
07:52 25.02 Ю  16 км    ясно  -1.1  -2.2  92  -6  -6    1016.3  969.2         
08:52 25.02 штиль  13 км    ясно  -1.7  -2.2  96  -3  -3    1016.2  968.9         
09:52 25.02 СВ  8 км  дымка  ясно  -1.1  -1.7  96  -6  -6    1015.5  968.6         
10:52 25.02 Ю  16 км    ясно  -1.1  -2.2  92  -6  -6    1015.9  968.9         
11:52 25.02 Ю  13 км    ясно  -1.7  -2.8  92  -5  -5    1016.4  969.2         
12:52 25.02 Ю  10 км  дымка  ясно  -3.9  -5.0  92  -7  -7    1017.6  970.2         
13:52 25.02 В  8 км  дымка  ясно  -1.1  -1.7  96  -6  -6    1018.0  970.5         
14:52 25.02 ЮВ  14 км    2/0 7500 м
[верхняя] 
+2.8  +1.7  92  -1  -1    1018.3  971.2         
15:52 25.02 Ю  16 км    2/0 7500 м
[верхняя] 
+6.7  +3.3  79  +3  +6    1018.2  970.8         
16:52 25.02 Ю  16 км    ясно  +8.9  +2.2  63  +5  +6    1017.9  970.8         
17:52 25.02 Ю  16 км    ясно  +11.7  +2.8  54  +9  +11    1017.2  970.2    +11.7     
18:52 25.02 Ю  16 км    ясно  +14.4  +3.3  47  +13  +16    1016.1  969.2         
19:52 25.02 Ю  16 км    ясно  +16.1  +1.7  38  +15  +17    1015.1  968.6         
20:52 25.02 Ю  16 км    ясно  +16.7  +0.6  34  +16  +19    1014.4  967.6         
21:52 25.02 Ю  16 км    ясно  +16.7  -0.6  31  +16  +20    1014.0  967.3         
22:52 25.02 ЮЗ  16 км    2/2 1500 м  +16.1  -1.1  31  +16  +18    1014.2  967.6         

 

Местоположение метеостанции Will Rogers World Airport: широта 35.3886 долгота -97.6003 высота над уровнем моря 394 м.

В архиве по умолчанию представлена погода в Оклахоме-Сити за последние 1-2 суток. Обновление информации о фактической погоде в базе происходит ежечасно! Архивные данные за месяц целиком и за предыдущие месяцы Вы можете получить, выбрав интересующий диапазон дат из раскрывающегося списка и нажав кнопку "Ввод!".

Внимание! Архив погоды МЕТАР в базе сайта в настоящее время начинается c 1 января 2013 г. Нет смысла пытаться выбрать более раннюю дату.

Внимание! Время в таблицах - всемирное. Для получения местного времени необходимо прибавить поправку, которая в Оклахоме-Сити равна -6 ч.

Ветер - указаны скорость ветра в м/с и направление, откуда дует ветер: С - северный, СВ - северо-восточный, В - восточный, ЮВ - юго-восточный, Ю - южный, ЮЗ - юго-западный, З - западный, СЗ - северо-западный.
Видимость - горизонтальная дальность видимости в метрах или километрах. При видимости от 1 до 10 км при отсутствии осадков обычно наблюдается дымка, при ухудшении видимости до 1 км и менее - туман. В сухую погоду видимость может ухудшаться дымом, пылью или мглою.
Атмосферные явления - указаны явления, наблюдавшиеся в указанный момент времени.
Облачность - указаны через наклонную черту верхняя и нижняя облачность в баллах и высота нижней границы облаков в метрах. Внимание: облачность, как и прочие метеорологические величины в США измеряются автоматическими метеостанциями. Указанные значения в баллах носят условный характер и показывают процент времени, в течение которого, в среднем, лазерный луч высотомера отражался от облаков обратно.
T - Температура воздуха - температура, измеренная на высоте 2 м над землей.
Td - Температура точки росы - температура, при понижении до которой содержащийся в воздухе водяной пар достигнет насыщения.
f - Относительная влажность воздуха - влажноcть воздуха, измеренная на высоте 2 м над землей.
Te - Эффективная температура - температура, которую ощущает одетый по сезону человек в тени. Характеристика душности погоды. При расчете учитывается влияние влажности воздуха и скорости ветра на теплоощущения человека.
Tes - Эффективная температура на солнце - температура, которую ощущает человек, с поправкой на солнечный нагрев. Характеристика знойности погоды. Зависит от высоты солнца над горизонтом, облачности и скорости ветра. Ночью, в пасмурную погоду, а также при ветре 12 м/с и более поправка равна нулю.
P - Атмосферное давление - приведенное к уровню моря атмосферное давление.
Po - Атмосферное давление - измеренное на уровне метеостанции атмосферное давление.
Tmin - Минимальная температура - минимум температуры воздуха на высоте 2 м над землей.
Tmax - Максимальная температура - максимум температуры воздуха на высоте 2 м над землей.
R - Количество осадков - Количество выпавших осадков за 3 или 6 часов, мм.
SD - Снежный покров - Высота снежного покрова, см.